Location: La Coruña
(43.3623°N, 8.4115°W)
Time: 16:40:34
(UTC+01:00)

STARLINK-1074 - Pass Details

Date: 17 January 2020
Orbit: 348 x 351 km, 53.0° (Epoch: 18 February)

Event Time Altitude Azimuth Distance (km) Brightness Sun altitude
Rises 19:55:57 0° 242° (WSW) 2,148 8.2 -16.2°
Reaches altitude 10° 19:57:58 10° 247° (WSW) 1,309 6.8 -16.6°
Maximum altitude 20:00:51 58° 327° (NNW) 414 3.0 -17.1°
Enters shadow 20:01:23 47° 15° (NNE) 475 3.1 -17.2°
